Gwinn, MI

11:39 AM EDT on May 22, 2017 (GMT -0400)
Sawyer International

Weather History for KSAW - October, 2012

Change the Weather History Date:

Wednesday, October 3, 2012

  Actual Average (KESC) Record (KESC)
Temperature  
Mean Temperature 55 °F -  
Max Temperature 69 °F 58 °F 72 °F (1951)
Min Temperature 41 °F 43 °F 28 °F (1996)
Degree Days  
Heating Degree Days 10    
Growing Degree Days 5 (Base 50)    
Moisture  
Dew Point 44 °F    
Average Humidity 79    
Maximum Humidity 94    
Minimum Humidity 33    
Precipitation  
Precipitation 0.00 in - - ()
Sea Level Pressure  
Sea Level Pressure 29.97 in    
Wind  
Wind Speed 4 mph (SSW)    
Max Wind Speed 8 mph    
Max Gust Speed -    
Visibility 7 miles    
Events Fog    
Averages and records for this station are not official NWS values.
T = Trace of Precipitation, MM = Missing Value Source: NWS Daily Summary

Daily Weather History Graph

Daily Weather History Graph

Search for Another Location

Airport or City:

Trip Planner

Search our weather history database for the weather conditions in past years. The results will help you decide how hot, cold, wet, or windy it might be!

Date:

Astronomy

Oct. 03, 2012 Rise Set
Actual Time 7:51 AM EDT 7:24 PM EDT
Civil Twilight 7:21 AM EDT 7:54 PM EDT
Nautical Twilight 6:46 AM EDT 8:29 PM EDT
Astronomical Twilight 6:11 AM EDT 9:04 PM EDT
Moon 9:02 PM EDT (10/3) 11:28 AM EDT (10/3)
Length of Visible Light 12h 33m
Length of Day
11h 33m
Waning Gibbous, 89% of the Moon is Illuminated
Oct 3
Waning Gibbous
Oct 8
Last Quarter
Oct 15
New
Oct 21
First Quarter
Oct 29
Full

Hourly Weather History & Observations

Time (EDT) Temp. Windchill Dew Point Humidity Pressure Visibility Wind Dir Wind Speed Gust Speed Precip Events Conditions
12:16 AM 45.9 °F 44.6 °F 42.8 °F 89% 29.97 in 10.0 mi South 3.5 mph - N/A   Clear
12:36 AM 45.5 °F 43.2 °F 42.8 °F 90% 29.97 in 10.0 mi South 4.6 mph - N/A   Clear
12:55 AM 45.5 °F 41.8 °F 42.8 °F 90% 29.96 in 10.0 mi South 6.9 mph - N/A   Clear
1:16 AM 45.5 °F 41.8 °F 43.0 °F 91% 29.95 in 10.0 mi SSE 6.9 mph - N/A   Clear
1:36 AM 45.5 °F 41.8 °F 43.0 °F 91% 29.95 in 10.0 mi SSE 6.9 mph - N/A   Clear
1:55 AM 44.4 °F 42.9 °F 41.9 °F 91% 29.96 in 10.0 mi West 3.5 mph - N/A   Clear
2:16 AM 41.5 °F - 39.4 °F 92% 29.96 in 0.2 mi Calm Calm - N/A Fog Fog
2:35 AM 41.2 °F - 39.0 °F 92% 29.97 in 0.5 mi Calm Calm - N/A Fog Fog
2:56 AM 42.8 °F - 40.6 °F 92% 29.97 in 0.5 mi Calm Calm - N/A Fog Fog
3:16 AM 43.7 °F - 41.4 °F 91% 29.97 in 0.2 mi Calm Calm - N/A Fog Fog
3:35 AM 44.1 °F - 42.1 °F 93% 29.97 in 0.2 mi Calm Calm - N/A Fog Fog
3:56 AM 43.2 °F 41.5 °F 41.2 °F 93% 29.97 in 0.2 mi NW 3.5 mph - N/A Fog Fog
4:16 AM 42.8 °F - 40.6 °F 92% 29.98 in 0.2 mi Calm Calm - N/A Fog Fog
4:36 AM 43.3 °F - 41.4 °F 93% 29.98 in 1.5 mi Calm Calm - N/A   Overcast
4:56 AM 43.7 °F 41.1 °F 41.9 °F 93% 29.98 in 10.0 mi SW 4.6 mph - N/A   Overcast
5:15 AM 44.6 °F 41.4 °F 42.4 °F 92% 29.98 in 10.0 mi SW 5.8 mph - N/A   Overcast
5:36 AM 45.5 °F - 43.7 °F 93% 29.98 in 10.0 mi Calm Calm - N/A   Overcast
5:56 AM 46.4 °F 45.2 °F 44.4 °F 93% 29.97 in 10.0 mi WSW 3.5 mph - N/A   Overcast
6:55 AM 50.0 °F - 46.4 °F 87% 29.97 in 0.8 mi WSW 8.1 mph - N/A   Overcast
7:50 AM 48.2 °F - 46.4 °F 93% 29.98 in 0.2 mi SW 5.8 mph - N/A   Overcast
8:02 AM 48.2 °F - 46.4 °F 93% 29.98 in 0.2 mi SW 5.8 mph - N/A Fog Fog
8:50 AM 48.2 °F - 46.4 °F 93% 29.99 in 0.2 mi SW 6.9 mph - N/A Fog Fog
9:50 AM 48.2 °F - 46.4 °F 93% 29.99 in 0.5 mi SW 4.6 mph - N/A Fog Fog
10:20 AM 48.2 °F - 46.4 °F 93% 29.98 in 3.0 mi SW 4.6 mph - N/A   Overcast
10:50 AM 51.8 °F - 50.0 °F 94% 29.99 in 10.0 mi WSW 3.5 mph - N/A   Scattered Clouds
11:50 AM 59.0 °F - 50.0 °F 72% 29.98 in 10.0 mi SW 3.5 mph - N/A   Clear
12:50 PM 64.4 °F - 48.2 °F 56% 29.98 in 10.0 mi West 5.8 mph - N/A   Clear
1:50 PM 66.2 °F - 42.8 °F 43% 29.97 in 10.0 mi SW 4.6 mph - N/A   Clear
2:50 PM 68.0 °F - 44.6 °F 43% 29.96 in 10.0 mi SW 4.6 mph - N/A   Clear
3:50 PM 69.8 °F - 41.0 °F 35% 29.95 in 10.0 mi SSW 3.5 mph - N/A   Clear
4:50 PM 69.8 °F - 39.2 °F 33% 29.94 in 10.0 mi South 3.5 mph - N/A   Clear
5:50 PM 69.8 °F - 39.2 °F 33% 29.96 in 10.0 mi SSE 8.1 mph - N/A   Clear
6:55 PM 66.2 °F - 44.6 °F 46% 29.96 in 10.0 mi SSE 8.1 mph - N/A   Clear
7:50 PM 60.8 °F - 46.4 °F 59% 29.97 in 10.0 mi SSE 4.6 mph - N/A   Clear
8:50 PM 57.2 °F - 44.6 °F 63% 29.97 in 10.0 mi SSE 5.8 mph - N/A   Clear
9:50 PM 55.4 °F - 44.6 °F 67% 29.99 in 10.0 mi SSW 3.5 mph - N/A   Clear
10:16 PM 53.4 °F - 45.3 °F 74% 29.99 in 10.0 mi Calm Calm - N/A   Clear
10:36 PM 51.6 °F - 44.6 °F 77% 29.99 in 10.0 mi Calm Calm - N/A   Clear
10:55 PM 51.8 °F - 44.8 °F 77% 29.99 in 10.0 mi Calm Calm - N/A   Clear
11:16 PM 50.5 °F - 44.8 °F 81% 29.99 in 10.0 mi Calm Calm - N/A   Clear
11:36 PM 49.8 °F - 43.9 °F 80% 29.99 in 10.0 mi Calm Calm - N/A   Clear
11:56 PM 49.1 °F - 44.8 °F 85% 29.98 in 10.0 mi SSW 3.5 mph - N/A   Clear